#timestamp,LO_Frequency,Hit,StdDev 
1583457235.6,286047014.0,P
1583457255.5,286047011.5,P
1583457275.3,286047011.0,P
1583457295.2,286047013.3,Y
1583457315.9,286047002.8,P
1583457335.7,286047001.8,N
1583457355.6,286047004.4,N
1583457375.4,286047005.7,N
1583457395.2,286047006.9,N
1583457415.1,286047007.9,N
1583457416.0,286047007.9,N
1583457435.8,286047010.5,Y
1583457455.7,286047004.1,P
1583457475.5,286047004.0,P
1583457495.3,286047003.1,P
1583457515.2,286047005.2,Y
1583457535.0,286047000.4,P
1583457535.9,286047000.4,N
1583457555.8,286046998.1,N
1583457575.6,286046999.6,N
1583457595.4,286046996.3,N
1583457615.3,286046992.2,Y
1583457635.1,286046992.2,P
1583457655.8,286046992.5,N
1583457675.7,286046992.4,N
1583457695.5,286046990.3,N
1583457715.4,286046988.5,Y
1583457735.2,286046995.6,P
1583457755.0,286046995.6,P
1583457755.9,286046995.6,P
1583457775.8,286046996.1,Y
1583457795.6,286046998.2,P
1583457815.5,286047000.9,N
1583457835.3,286046998.1,N
1583457855.1,286047001.2,N
1583457875.9,286047000.3,N
1583457895.7,286046998.5,N
1583457915.5,286047001.1,N
1583457935.4,286047004.1,N
1583457955.2,286047004.2,N
1583457975.1,286047004.0,N
1583457976.0,286047004.0,N
1583457995.8,286047001.6,N
1583458015.6,286047001.4,N
1583458035.5,286047003.6,N
1583458055.3,286047003.6,N
1583458075.1,286047006.0,N
1583458095.9,286047003.0,N
1583458115.7,286047004.3,N
1583458135.6,286047005.9,N
1583458155.4,286047005.9,N
1583458175.2,286047005.8,N
1583458195.1,286047003.9,N
1583458196.0,286047003.9,N
1583458215.8,286047000.1,N
1583458235.6,286047002.6,N
1583458255.5,286047000.9,N
1583458275.3,286047000.5,N
1583458295.2,286047001.2,N
1583458315.9,286046998.7,N
1583458335.7,286046999.4,N
1583458355.6,286046996.7,N
1583458375.4,286046996.5,N
1583458395.3,286046999.4,N
1583458415.1,286046998.5,N
1583458416.0,286046998.5,N
1583458435.8,286046998.6,N
1583458455.7,286046998.9,N
1583458475.5,286046999.0,N
1583458495.3,286046999.2,N
1583458515.2,286046996.7,N
1583458535.0,286046999.4,N
1583458535.9,286046999.4,N
1583458555.8,286046998.4,N
1583458575.6,286047001.2,N
1583458595.4,286047001.2,N
1583458615.3,286047000.6,N
1583458635.1,286047001.1,N
1583458655.8,286046998.3,N
1583458675.7,286046998.2,N
1583458695.5,286046998.3,N
1583458715.4,286046998.7,N
1583458735.2,286046999.0,N
1583458755.0,286046998.5,N
1583458755.9,286046998.5,N
1583458775.8,286046999.9,N
1583458795.6,286046999.7,N
1583458815.4,286047000.1,N
1583458835.3,286047002.8,N
1583458855.1,286047000.1,N
1583458875.9,286047000.4,N
1583458895.7,286047002.6,N
1583458915.5,286047002.2,N
1583458935.4,286047002.5,N
1583458955.2,286047000.5,N
1583458975.1,286046999.9,N
1583458976.0,286046999.9,N
1583458995.8,286047002.6,N
1583459015.6,286047002.8,N
1583459035.5,286046999.7,N
1583459055.3,286046999.7,N
1583459075.1,286047002.5,N
1583459095.9,286047001.3,N
1583459115.7,286047004.4,N
1583459135.6,286047003.8,N
1583459155.4,286047005.9,Y
1583459175.2,286047005.4,P
1583459195.1,286047005.9,N
1583459196.0,286047005.9,N
1583459215.8,286047005.1,N
1583459235.7,286047005.0,N
1583459255.5,286047007.5,Y
1583459275.3,286046999.8,P
1583459295.2,286046999.8,N
1583459315.0,286046999.8,N
1583459315.9,286046999.8,N
1583459335.8,286047000.0,N
1583459355.6,286047002.5,N
1583459375.4,286046999.7,N
1583459395.3,286047002.2,N
1583459415.1,286047002.6,N
1583459435.8,286047002.1,N
1583459455.7,286047001.3,N
1583459475.5,286047002.2,N
1583459495.4,286046999.8,N
1583459515.2,286047002.3,N
1583459535.0,286047002.1,N
1583459535.9,286047002.1,N
1583459555.8,286047001.9,N
1583459575.6,286047004.0,N
1583459595.4,286047001.9,N
1583459615.3,286047002.0,N
1583459635.1,286047001.7,N
1583459655.9,286047002.0,N
1583459675.7,286047001.7,N
1583459695.5,286047004.1,Y
1583459715.4,286047002.6,P
1583459735.2,286046999.8,N
1583459755.0,286047002.7,N
1583459755.9,286047002.7,N
1583459775.8,286046999.7,N
1583459795.6,286047002.8,N
1583459815.5,286047000.4,N
1583459835.3,286047002.1,N
1583459855.1,286047002.2,N
1583459875.9,286047002.7,N
1583459895.7,286047001.9,N
1583459915.5,286047001.4,N
1583459935.4,286047003.9,Y
1583459955.2,286047000.4,P
1583459975